Location: �perlecques
(50.8057°N, 2.1521°E)
Time: 19:23:06
(UTC+00:00)

Vanguard 1 Rocket - Pass Details

Date: 07 August 2021
Orbit: 650 x 4226 km, 34.3° (Epoch: 25 September)

Event Time Altitude Azimuth Distance (km) Brightness Sun altitude
Rises 14:18:36 0° 272° (W) 6,460 12.2 45.4°
Reaches altitude 10° 14:26:17 10° 252° (WSW) 4,535 11.9 44.4°
Maximum altitude 14:31:06 13° 227° (SW) 3,643 11.7 43.8°
Drops below altitude 10° 14:34:56 10° 200° (SSW) 3,419 11.1 43.3°
Sets 14:39:07 0° 174° (S) 3,856 10.9 42.7°
